Chanute, KS

6:15 AM CST on December 17, 2017 (GMT -0600)
Chanute Martin Johnson

Weather History for KCNU - September, 2013

Change the Weather History Date:

Sunday, September 15, 2013

  Actual Average Record
Temperature  
Mean Temperature 78 °F 70 °F  
Max Temperature 90 °F 81 °F 101 °F (1956)
Min Temperature 65 °F 59 °F 38 °F (1993)
Degree Days  
Heating Degree Days 0 1  
Month to date heating degree days 0 6  
Since 1 July heating degree days 0 7  
Cooling Degree Days 13 6  
Month to date cooling degree days 184 130  
Year to date cooling degree days 1451 1434  
Growing Degree Days 27 (Base 50)    
Moisture  
Dew Point 58 °F    
Average Humidity 64    
Maximum Humidity 90    
Minimum Humidity 37    
Precipitation  
Precipitation 0.04 in 0.11 in 2.38 in (1969)
Month to date precipitation 0.04 1.65  
Year to date precipitation 34.82 32.14  
Sea Level Pressure  
Sea Level Pressure 29.99 in    
Wind  
Wind Speed 9 mph (South)    
Max Wind Speed 23 mph    
Max Gust Speed 29 mph    
Visibility 10 miles    
Events Rain , Thunderstorm    
T = Trace of Precipitation, MM = Missing Value Source: NWS Daily Summary

Daily Weather History Graph

Daily Weather History Graph

Search for Another Location

Airport or City:

Trip Planner

Search our weather history database for the weather conditions in past years. The results will help you decide how hot, cold, wet, or windy it might be!

Date:

Astronomy

Sep. 15, 2013 Rise Set
Actual Time 7:04 AM CDT 7:29 PM CDT
Civil Twilight 6:37 AM CDT 7:55 PM CDT
Nautical Twilight 6:06 AM CDT 8:26 PM CDT
Astronomical Twilight 5:35 AM CDT 8:57 PM CDT
Moon 4:54 PM CDT (9/15) 2:47 AM CDT (9/15)
Length of Visible Light 13h 17m
Length of Day
12h 25m
Waxing Gibbous, 82% of the Moon is Illuminated
Sep 15
Waxing Gibbous
Sep 19
Full
Sep 26
Last Quarter
Oct 4
New
Oct 11
First Quarter

Hourly Weather History & Observations

Time (CDT) Temp. Heat Index Dew Point Humidity Pressure Visibility Wind Dir Wind Speed Gust Speed Precip Events Conditions
12:52 AM 68.0 °F - 52.0 °F 56% 29.95 in 10.0 mi SSE 9.2 mph - N/A   Clear
1:52 AM 68.0 °F - 54.0 °F 61% 29.95 in 10.0 mi SSE 6.9 mph - N/A   Clear
2:52 AM 68.0 °F - 54.0 °F 61% 29.95 in 10.0 mi SSE 8.1 mph - N/A   Clear
3:52 AM 69.1 °F - 53.1 °F 57% 29.95 in 10.0 mi South 9.2 mph - N/A   Clear
4:52 AM 69.1 °F - 50.0 °F 51% 29.94 in 10.0 mi South 12.7 mph - N/A   Clear
5:52 AM 66.9 °F - 51.1 °F 57% 29.95 in 10.0 mi South 6.9 mph - N/A   Clear
6:52 AM 66.0 °F - 52.0 °F 60% 29.97 in 10.0 mi South 9.2 mph - N/A   Clear
7:52 AM 66.9 °F - 52.0 °F 59% 29.98 in 10.0 mi South 10.4 mph - N/A   Clear
8:52 AM 71.1 °F - 53.1 °F 53% 29.98 in 10.0 mi South 12.7 mph 19.6 mph N/A   Clear
9:52 AM 75.0 °F - 53.1 °F 46% 29.99 in 10.0 mi SSW 16.1 mph 23.0 mph N/A   Clear
10:52 AM 79.0 °F - 53.1 °F 40% 29.99 in 10.0 mi South 16.1 mph 24.2 mph N/A   Clear
11:52 AM 84.0 °F 83.0 °F 55.9 °F 38% 29.99 in 10.0 mi South 16.1 mph 20.7 mph N/A   Clear
12:52 PM 84.9 °F 83.9 °F 57.0 °F 38% 29.97 in 10.0 mi SSW 13.8 mph - N/A   Clear
1:52 PM 88.0 °F 87.1 °F 59.0 °F 37% 29.98 in 10.0 mi WSW 8.1 mph - N/A   Clear
2:52 PM 87.1 °F 86.5 °F 59.0 °F 39% 29.96 in 10.0 mi Variable 3.5 mph - N/A   Clear
3:52 PM 87.1 °F 86.7 °F 60.1 °F 40% 29.96 in 10.0 mi SSE 6.9 mph - N/A   Clear
4:52 PM 87.1 °F 86.7 °F 60.1 °F 40% 29.96 in 10.0 mi Calm Calm - N/A   Clear
5:52 PM 88.0 °F 87.9 °F 61.0 °F 40% 29.96 in 10.0 mi SSE 5.8 mph - N/A   Clear
6:52 PM 84.9 °F 85.4 °F 62.1 °F 46% 29.97 in 10.0 mi ESE 3.5 mph - N/A   Clear
7:52 PM 78.1 °F - 64.0 °F 62% 29.98 in 10.0 mi SSE 3.5 mph - N/A   Clear
8:52 PM 78.1 °F - 64.9 °F 64% 30.01 in 10.0 mi ESE 3.5 mph - N/A   Scattered Clouds
9:52 PM 73.0 °F - 66.0 °F 79% 30.06 in 9.0 mi NNW 16.1 mph 24.2 mph 0.01 in Rain , Thunderstorm Light Thunderstorms and Rain
10:09 PM 71.6 °F - 66.2 °F 83% 30.08 in 10.0 mi North 10.4 mph 20.7 mph 0.01 in Rain Light Rain
10:52 PM 72.0 °F - 66.9 °F 84% 30.02 in 10.0 mi ESE 4.6 mph - 0.03 in   Scattered Clouds
11:45 PM 71.6 °F - 68.0 °F 88% 30.10 in 10.0 mi WNW 9.2 mph 18.4 mph N/A   Partly Cloudy
11:52 PM 72.0 °F - 68.0 °F 87% 30.07 in 10.0 mi NW 8.1 mph - N/A   Partly Cloudy